TimeEDT,TemperatureF,Dew PointF,Humidity,Sea Level PressureIn,VisibilityMPH,Wind Direction,Wind SpeedMPH,Gust SpeedMPH,PrecipitationIn,Events,Conditions,WindDirDegrees,DateUTC
12:15 AM,47.3,46.4,97,30.05,7.0,Calm,Calm,-,0.02,Rain,Rain,0,2013-03-31 04:15:00
12:35 AM,47.3,46.6,97,30.04,4.0,Calm,Calm,-,0.05,Rain,Rain,0,2013-03-31 04:35:00
12:55 AM,47.3,46.6,97,30.03,4.0,Calm,Calm,-,0.09,Rain,Rain,0,2013-03-31 04:55:00
1:15 AM,47.3,46.4,97,30.02,4.0,Calm,Calm,-,0.03,Rain,Rain,0,2013-03-31 05:15:00
1:35 AM,47.3,46.4,97,30.00,4.0,East,3.5,-,0.05,Rain,Rain,80,2013-03-31 05:35:00
1:55 AM,47.3,46.6,97,29.99,5.0,Calm,Calm,-,0.07,Rain,Rain,0,2013-03-31 05:55:00
2:15 AM,47.5,46.8,97,29.98,5.0,Calm,Calm,-,0.01,Rain,Rain,0,2013-03-31 06:15:00
2:35 AM,47.3,46.6,97,29.97,4.0,Calm,Calm,-,0.02,Rain,Rain,0,2013-03-31 06:35:00
2:55 AM,47.3,46.6,97,29.96,3.0,East,4.6,-,0.04,Rain,Rain,80,2013-03-31 06:55:00
3:15 AM,47.5,46.8,97,29.95,5.0,ENE,4.6,-,0.02,Rain,Rain,60,2013-03-31 07:15:00
3:35 AM,47.8,47.3,98,29.94,7.0,East,6.9,-,0.03,Rain,Light Rain,80,2013-03-31 07:35:00
3:55 AM,48.2,47.3,97,29.94,5.0,Calm,Calm,-,0.04,Rain,Light Rain,0,2013-03-31 07:55:00
4:15 AM,48.2,47.5,97,29.93,5.0,Calm,Calm,-,0.01,Rain,Light Rain,0,2013-03-31 08:15:00
4:35 AM,48.4,47.7,97,29.92,5.0,Calm,Calm,-,0.02,Rain,Rain,0,2013-03-31 08:35:00
4:55 AM,48.6,48.0,98,29.92,5.0,Calm,Calm,-,0.03,Rain,Light Rain,0,2013-03-31 08:55:00
5:15 AM,48.2,47.7,98,29.92,4.0,Calm,Calm,-,0.01,Rain,Light Rain,0,2013-03-31 09:15:00
5:35 AM,48.2,47.5,97,29.92,5.0,Calm,Calm,-,0.02,,Drizzle,0,2013-03-31 09:35:00
5:55 AM,48.0,47.3,97,29.91,5.0,Calm,Calm,-,0.03,Rain,Light Rain,0,2013-03-31 09:55:00
6:15 AM,48.2,47.3,97,29.90,4.0,Calm,Calm,-,0.01,Rain,Rain,0,2013-03-31 10:15:00
6:35 AM,48.2,47.3,97,29.91,4.0,Calm,Calm,-,0.01,Rain,Rain,0,2013-03-31 10:35:00
6:55 AM,47.8,47.1,97,29.91,4.0,Calm,Calm,-,0.01,,Drizzle,0,2013-03-31 10:55:00
7:15 AM,48.0,47.3,97,29.92,5.0,WSW,3.5,-,0.01,Rain,Rain,240,2013-03-31 11:15:00
7:35 AM,48.2,47.3,97,29.91,7.0,Calm,Calm,-,0.01,Rain,Light Rain,0,2013-03-31 11:35:00
7:55 AM,48.2,47.3,97,29.92,7.0,Calm,Calm,-,0.01,,Overcast,0,2013-03-31 11:55:00
8:15 AM,48.4,47.7,97,29.92,7.0,Calm,Calm,-,N/A,,Light Drizzle,0,2013-03-31 12:15:00
8:35 AM,48.7,48.0,97,29.92,7.0,Calm,Calm,-,N/A,,Mostly Cloudy,0,2013-03-31 12:35:00
8:55 AM,49.5,48.6,97,29.93,7.0,Calm,Calm,-,N/A,,Mostly Cloudy,0,2013-03-31 12:55:00
9:15 AM,50.4,49.6,97,29.94,10.0,Calm,Calm,-,N/A,,Mostly Cloudy,0,2013-03-31 13:15:00
9:35 AM,51.1,50.4,97,29.94,10.0,Calm,Calm,-,N/A,,Mostly Cloudy,0,2013-03-31 13:35:00
9:55 AM,51.8,51.6,99,29.94,10.0,East,3.5,-,N/A,,Mostly Cloudy,80,2013-03-31 13:55:00
10:15 AM,52.5,52.5,100,29.94,10.0,ESE,3.5,-,N/A,,Mostly Cloudy,110,2013-03-31 14:15:00
10:35 AM,53.6,52.7,97,29.94,10.0,East,4.6,-,N/A,,Mostly Cloudy,80,2013-03-31 14:35:00
10:55 AM,53.6,52.2,95,29.94,10.0,SSE,3.5,-,N/A,,Mostly Cloudy,150,2013-03-31 14:55:00
11:15 AM,54.7,49.6,83,29.93,10.0,East,5.8,-,N/A,,Overcast,90,2013-03-31 15:15:00
11:35 AM,56.7,49.1,76,29.93,10.0,NE,3.5,-,N/A,,Mostly Cloudy,50,2013-03-31 15:35:00
11:55 AM,57.7,48.7,72,29.93,10.0,Calm,Calm,-,N/A,,Scattered Clouds,0,2013-03-31 15:55:00
12:15 PM,59.0,45.9,62,29.94,10.0,WNW,6.9,-,N/A,,Mostly Cloudy,290,2013-03-31 16:15:00
12:35 PM,59.5,45.5,60,29.92,10.0,WNW,6.9,-,N/A,,Overcast,300,2013-03-31 16:35:00
12:55 PM,60.3,45.7,59,29.93,10.0,West,6.9,-,N/A,,Overcast,260,2013-03-31 16:55:00
1:15 PM,60.8,45.3,57,29.92,10.0,West,5.8,-,N/A,,Overcast,280,2013-03-31 17:15:00
1:35 PM,60.4,45.3,57,29.92,10.0,WSW,8.1,-,N/A,,Overcast,250,2013-03-31 17:35:00
1:55 PM,60.8,45.9,58,29.92,10.0,SW,6.9,-,N/A,,Overcast,230,2013-03-31 17:55:00
2:15 PM,61.3,45.9,57,29.90,10.0,WSW,5.8,-,N/A,,Mostly Cloudy,240,2013-03-31 18:15:00
2:35 PM,60.8,46.0,58,29.91,10.0,WSW,5.8,-,N/A,,Mostly Cloudy,240,2013-03-31 18:35:00
2:55 PM,60.3,46.2,60,29.89,10.0,Calm,Calm,-,N/A,,Overcast,0,2013-03-31 18:55:00
3:15 PM,60.1,45.7,59,29.89,10.0,South,3.5,-,N/A,,Light Drizzle,190,2013-03-31 19:15:00
3:35 PM,57.6,48.2,71,29.90,7.0,WSW,5.8,17.3,N/A,Rain,Light Rain,240,2013-03-31 19:35:00
3:55 PM,56.7,49.3,76,29.89,10.0,South,3.5,-,0.01,Rain,Light Rain,190,2013-03-31 19:55:00
4:15 PM,57.6,47.8,70,29.89,10.0,South,4.6,-,N/A,,Light Drizzle,180,2013-03-31 20:15:00
4:35 PM,57.2,48.6,73,29.89,10.0,SW,5.8,-,N/A,,Overcast,230,2013-03-31 20:35:00
4:55 PM,56.8,48.9,75,29.87,10.0,Calm,Calm,-,N/A,Rain,Light Rain,0,2013-03-31 20:55:00
5:15 PM,57.2,49.1,74,29.88,10.0,Calm,Calm,-,N/A,,Overcast,0,2013-03-31 21:15:00
5:35 PM,57.2,49.1,74,29.89,10.0,Calm,Calm,-,N/A,,Overcast,0,2013-03-31 21:35:00
5:55 PM,56.5,50.9,82,29.89,10.0,Calm,Calm,-,N/A,,Overcast,0,2013-03-31 21:55:00
6:15 PM,56.3,50.9,82,29.88,10.0,Calm,Calm,-,N/A,Rain,Light Rain,0,2013-03-31 22:15:00
6:35 PM,55.6,52.2,88,29.87,10.0,Calm,Calm,-,N/A,,Overcast,0,2013-03-31 22:35:00
6:55 PM,55.4,52.7,91,29.87,10.0,Calm,Calm,-,N/A,,Overcast,0,2013-03-31 22:55:00
7:15 PM,54.5,53.1,95,29.88,10.0,Calm,Calm,-,N/A,,Overcast,0,2013-03-31 23:15:00
7:35 PM,54.5,53.2,96,29.87,10.0,Calm,Calm,-,N/A,,Overcast,0,2013-03-31 23:35:00
7:55 PM,53.8,53.1,97,29.87,10.0,East,4.6,-,N/A,Rain,Rain,90,2013-03-31 23:55:00
8:15 PM,53.8,53.2,98,29.87,10.0,Calm,Calm,-,N/A,,Overcast,0,2013-04-01 00:15:00
8:35 PM,53.6,52.7,97,29.87,10.0,Calm,Calm,-,N/A,Rain,Rain,0,2013-04-01 00:35:00
8:55 PM,52.7,52.5,99,29.88,10.0,Calm,Calm,-,N/A,,Drizzle,0,2013-04-01 00:55:00
9:15 PM,52.7,52.7,100,29.87,10.0,Calm,Calm,-,N/A,,Overcast,0,2013-04-01 01:15:00
9:35 PM,52.3,52.2,99,29.87,10.0,Calm,Calm,-,N/A,Rain,Light Rain,0,2013-04-01 01:35:00
10:15 PM,52.0,51.8,99,29.88,10.0,Calm,Calm,-,N/A,,Overcast,0,2013-04-01 02:15:00
10:35 PM,51.8,51.6,99,29.89,10.0,Calm,Calm,-,N/A,,Overcast,0,2013-04-01 02:35:00
10:55 PM,51.8,51.3,98,29.89,10.0,Calm,Calm,-,N/A,,Overcast,0,2013-04-01 02:55:00
11:15 PM,51.8,51.3,98,29.89,10.0,Calm,Calm,-,N/A,,Overcast,0,2013-04-01 03:15:00
11:35 PM,51.8,51.4,99,29.89,10.0,Calm,Calm,-,N/A,,Overcast,0,2013-04-01 03:35:00
11:55 PM,51.3,51.1,99,29.89,10.0,Calm,Calm,-,N/A,,Overcast,0,2013-04-01 03:55:00